Location: Newark
(40.3500°N, 15.2333°E)
Time: 04:25:35
(UTC+00:00)

Altair - Pass Details

Date: 24 January 2020
Orbit: 1502 x 1682 km, 47.2° (Epoch: 18 February)

Event Time Altitude Azimuth Distance (km) Brightness Sun altitude
Rises 12:23:16 0° 293° (WNW) 4,938 10.1 28.1°
Reaches altitude 10° 12:26:28 10° 295° (WNW) 3,948 9.7 27.9°
Maximum altitude 12:36:40 73° 20° (NNE) 1,728 8.0 27.1°
Drops below altitude 10° 12:46:35 10° 105° (ESE) 3,853 9.6 26.4°
Sets 12:49:41 0° 108° (ESE) 4,815 10.0 26.1°
